Location: *
(38.8181°S, 103.0319°E)
Time: 15:54:54
(UTC+00:00)

Daily predictions for brighter satellites

Satellite Brightness Start Highest point End
(mag) Time Altitude Azimuth Time Altitude Azimuth Time Altitude Azimuth
Cosmos 1302 Rocket 4.0 12:17:53 10° N 12:23:01 64° ENE 12:28:14 10° SSE
METEOR-M 4.3 12:18:10 10° SSE 12:23:30 56° E 12:28:46 10° N
Meteor 1-29 4.3 12:25:05 10° N 12:28:24 43° W 12:31:48 10° SSW
NOAA 12 4.1 12:24:07 10° SSE 12:29:24 64° E 12:34:39 10° N
Cosmos 1975 Rocket 3.4 12:29:03 10° NNW 12:33:27 74° W 12:37:57 10° S
COSMOS 2455 2.9 12:28:04 10° NNW 12:33:58 64° ENE 12:39:57 10° SE
H-2A R/B 3.9 12:30:58 10° SE 12:34:02 22° E 12:37:02 10° NNE
NOSS 3-2 (C) 4.4 12:30:42 10° N 12:38:14 42° ENE 12:45:22 10° SE
Cosmos 1500 4.1 12:36:57 10° SSE 12:40:31 31° ESE 12:44:01 10° NE
ATLAS 3B R/B 3.7 12:38:06 10° NW 12:44:20 48° SW 12:50:54 10° SSE
Cosmos 1455 Rocket 3.3 12:40:25 10° S 12:44:51 50° E 12:49:13 10° NNE
Spot 2 Rocket 4.1 12:41:51 10° SSE 12:46:32 35° E 12:51:07 10° NNE
Okean 1 3.4 12:44:56 10° N 12:48:56 56° E 12:52:58 10° SSE
ALOS 2.3 12:45:59 10° SSE 12:50:40 57° E 12:55:17 10° N
Cosmos 1536 Rocket 3.8 12:48:03 10° N 12:52:25 52° E 12:56:50 10° SSE
Cosmos 1992 Rocket 4.5 12:50:17 10° NNE 12:55:06 38° ENE 12:59:59 10° SE
Cosmos 1697 Rocket 2.6 12:52:17 10° NNW 12:57:54 82° ENE 13:03:36 10° SSE
Cosmos 1340 3.6 12:54:48 10° NNE 12:58:07 29° E 13:01:28 10° SSE
Cosmos 1354 Rocket 4.2 12:53:13 10° S 12:58:28 57° ESE 13:03:16 12° NNE
Nimbus 7 Rocket 4.5 12:54:23 10° NNE 13:00:10 61° ESE 13:06:00 10° S
Cosmos 1980 Rocket 2.4 12:55:22 10° N 13:00:52 51° ENE 13:06:23 10° SSE
Envisat 4.5 12:58:59 10° SE 13:02:13 17° E 13:02:57 16° ENE
CENTAUR R/B 4.0 12:57:25 10° NNE 13:02:47 20° ENE 13:07:51 10° ESE
Meteor 1-18 Rocket 4.5 12:58:24 10° NNW 13:04:10 79° W 13:10:07 10° S
BREEZE-M R/B 4.1 13:01:58 10° WSW 13:05:15 40° NW 13:10:52 11° NNE
Cosmos 1656 4.3 13:00:16 10° NW 13:05:39 60° WSW 13:11:05 10° SSE
Cosmos 2084 4.3 13:02:04 10° N 13:06:18 34° ENE 13:10:44 10° SE
BREEZE-M R/B 4.0 13:05:04 10° W 13:06:31 21° NNW 13:07:48 14° N
Milstar 3 3.7 13:05:20 10° NW 13:11:16 33° NNE 13:16:09 19° ENE
SJ-6B 4.0 13:07:49 10° S 13:11:53 49° WSW 13:15:55 10° NNW
SAR-Lupe-4 3.8 13:11:31 10° SSE 13:15:03 45° E 13:18:05 13° N
Cosmos 489 Rocket 4.5 13:15:02 10° SSW 13:21:28 77° ESE 13:26:37 16° NNE
USA 186 1.9 13:18:32 10° SSE 13:21:34 46° E 13:22:31 34° NNE
Meteor 1-19 Rocket 4.4 13:17:24 10° N 13:23:06 55° E 13:28:54 10° SSE
Helios 1A 3.2 13:19:55 10° SSE 13:24:07 49° E 13:27:25 15° N
CZ-4B DEB 3.6 13:21:48 10° SSE 13:24:16 31° ESE 13:24:16 31° ESE
Delta 2 Rocket 3.2 13:22:09 10° WNW 13:25:32 46° N 13:26:13 39° NE
Tiangong 1 2.2 13:25:57 10° WSW 13:28:46 36° S 13:29:59 24° SE
FENGYUN 3A 4.0 13:25:08 10° S 13:30:32 68° WSW 13:35:53 10° NNW
SL-16 R/B 2.9 13:28:56 26° NE 13:30:37 30° ENE 13:35:32 10° SE
Cosmos 2360 4.1 13:26:44 10° NNW 13:32:27 72° ENE 13:38:12 10° SSE
Meteor 1-13 Rocket 4.2 13:28:27 10° N 13:34:15 80° E 13:40:15 10° SSE
SL-8 Rocket 3.9 13:28:04 10° S 13:34:17 68° E 13:38:40 20° NNE
Cosmos 1238 Rocket 3.2 13:30:34 10° NNW 13:34:20 69° W 13:38:59 10° S
Cosmos 1503 Rocket 4.3 13:30:12 10° SSW 13:35:25 67° WNW 13:39:27 17° N
Cosmos 2341 Rocket 4.3 13:31:16 10° SSW 13:37:32 69° W 13:43:46 10° N
Meteor 2-9 Rocket 4.5 13:37:03 10° S 13:42:13 44° ESE 13:43:40 36° ENE
Resurs 01 Rocket 2.6 13:40:03 10° S 13:44:26 49° WSW 13:48:45 10° NNW
Cosmos 2297 Rocket 4.1 13:40:19 10° SW 13:45:01 27° WNW 13:49:41 10° NNW
CZ-4 R/B 4.3 13:44:58 38° E 13:45:47 42° ESE 13:50:13 10° S
Cosmos 724 4.4 13:40:23 10° NW 13:46:11 76° WSW 13:51:59 10° SSE
Cosmos 1666 2.9 13:42:55 10° S 13:46:48 51° E 13:46:53 51° E
Cosmos 2181 Rocket 4.5 13:41:18 10° NNW 13:47:41 65° W 13:54:10 10° S
Iridium 2 4.2 13:43:59 10° S 13:47:53 61° W 13:50:04 24° NNW
Lacrosse 5 rocket 1.7 13:44:32 10° SW 13:49:17 70° NW 13:50:42 43° NNE
Cosmos 2322 Rocket 2.4 13:47:42 29° NNE 13:50:11 47° ENE 13:55:39 10° SE
SL-19 R/B 4.5 13:46:53 26° NNE 13:50:35 81° ESE 13:57:00 10° SSW
Cosmos 2263 Rocket 3.4 13:47:42 10° S 13:52:25 26° SE 13:53:23 25° ESE
Meteor 1-23 Rocket 4.3 13:50:12 32° NNE 13:52:41 57° E 13:58:15 10° SSE
CZ-2D R/B 4.3 13:50:15 10° S 13:54:03 46° WSW 13:57:46 10° NNW
Cosmos 968 Rocket 3.6 13:56:08 10° S 14:01:23 57° ESE 14:02:14 51° ENE
Cosmos 1743 3.4 13:58:35 10° SSW 14:02:24 53° W 14:03:27 39° NW
Okean 1-7 Rocket 3.7 14:00:14 29° NNW 14:02:30 76° W 14:06:59 10° S
Cosmos 864 Rocket 4.4 13:58:26 10° S 14:04:52 82° E 14:07:38 37° NNE
NOSS 2-1 (D) 4.5 13:58:16 10° SSW 14:05:31 62° SE 14:06:56 48° ENE
NOSS 2-1 (C) 4.5 13:58:39 10° SSW 14:05:55 61° SE 14:07:22 48° ENE
Meteor 2-4 Rocket 3.5 14:03:19 23° N 14:06:46 87° W 14:12:15 10° S
Meteor 2-21 4.4 14:02:25 10° S 14:08:37 66° E 14:10:09 49° NE
Meteor 1-15 Rocket 4.2 14:07:30 10° S 14:13:23 65° E 14:14:16 57° ENE
Cosmos 1809 Rocket 4.3 14:14:03 10° S 14:20:17 85° E 14:21:49 54° NNE
BREEZE-M DEB (TANK) 4.1 14:20:13 10° WSW 14:22:38 38° S 14:29:39 10° ESE
SJ-11-01 4.3 14:18:05 10° S 14:22:51 79° WSW 14:23:31 64° NW
Meteor 2-16 Rocket 4.5 14:17:41 10° S 14:23:46 58° E 14:24:08 57° E
NOSS 3-3 (A) 4.4 14:19:41 10° SW 14:26:01 53° WNW 14:27:48 40° NNW
NOSS 3-3 (C) 4.4 14:19:42 10° SW 14:26:04 54° WNW 14:27:52 41° NNW
NOSS 2-1 (E) 4.1 14:19:33 10° SSW 14:26:37 80° SE 14:27:13 71° ENE
Cosmos 1726 Rocket 4.0 14:23:22 10° S 14:27:03 56° SSE 14:27:03 56° SSE
Cosmos 2366 rocket 4.4 14:23:43 10° SSW 14:29:58 60° W 14:32:45 33° NNW
Nadezhda 3 Rocket 3.9 14:30:56 66° NE 14:31:41 73° E 14:38:04 10° S
Cosmos 1025 Rocket 4.0 14:32:05 39° WNW 14:33:03 46° W 14:37:21 10° S
Cosmos 2228 4.3 14:34:23 10° S 14:37:05 34° SSE 14:37:05 34° SSE
CZ-4B R/B 3.9 14:38:36 53° WNW 14:39:03 55° W 14:43:57 10° SSW
Cosmos 1821 Rocket 4.3 14:33:26 10° S 14:38:53 48° ESE 14:38:53 48° ESE
Envisat 3.6 14:36:30 10° S 14:41:32 54° WSW 14:43:09 38° NW
Cosmos 2360 Rocket 3.7 14:47:09 25° SE 14:47:09 25° SE 14:49:37 10° SSE
Cosmos 1980 Rocket 4.5 14:40:37 10° WNW 14:45:08 24° SW 14:49:41 10° S
Cosmos 1777 Rocket 4.3 14:42:06 10° SSW 14:46:36 62° S 14:46:36 62° S
CENTAUR R/B 2.9 14:44:48 10° NNW 14:52:52 85° WSW 15:00:08 10° SSE
Cosmos 2344 4.1 14:42:24 10° SW 14:55:01 89° SE 14:57:42 56° NNE
ERS-1 Rocket 3.5 14:54:19 10° S 14:58:49 58° SW 14:58:49 58° SW
CZ-2C R/B 4.2 15:15:01 26° SSE 15:15:01 26° SSE 15:17:44 10° S
SL-16 R/B 3.6 15:10:34 16° WNW 15:14:34 36° WSW 15:19:50 10° S
Cosmos 1934 Rocket 4.3 15:12:47 10° S 15:18:07 64° S 15:18:07 64° S
Cosmos 1844 Rocket 4.3 15:20:43 10° S 15:24:06 27° SSE 15:24:06 27° SSE
USA 234 3.9 15:27:46 43° SE 15:28:10 44° SSE 15:34:22 10° SW
Cosmos 2322 Rocket 4.2 15:29:50 10° WNW 15:34:27 25° SW 15:39:08 10° S
Cosmos 2263 Rocket 3.4 15:31:08 10° SW 15:35:05 37° WSW 15:35:05 37° WSW
ARGOS 4.4 15:42:02 10° S 15:45:32 38° SSW 15:45:32 38° SSW
Cosmos 2278 Rocket 4.2 15:50:33 10° S 15:53:20 21° SSE 15:53:20 21° SSE
Terra 4.3 15:52:58 10° SSE 15:53:58 16° SSE 15:53:58 16° SSE
H-2A R/B 4.1 16:10:50 10° S 16:12:46 23° S 16:12:46 23° S
Lacrosse 5 4.4 16:19:15 10° SSW 16:21:41 17° S 16:21:41 17° S
Cosmos 2360 Rocket 4.2 16:28:52 23° SW 16:28:52 23° SW 16:32:56 10° S
Cosmos 2219 Rocket 4.3 16:36:41 22° SSE 16:36:41 22° SSE 16:38:35 10° SSE
Cosmos 2333 Rocket 4.3 16:52:41 23° SSE 16:52:41 23° SSE 16:54:42 10° SSE
Cosmos 2237 Rocket 4.3 17:56:14 22° SSW 17:56:14 22° SSW 17:58:40 10° S
SL-16 R/B 4.0 18:26:21 26° S 18:26:21 26° S 18:29:07 10° S
Cosmos 1943 Rocket 4.3 18:42:03 10° S 18:46:20 22° SE 18:48:13 19° E
NOSS 3-1 (A) 4.1 18:47:58 72° SSE 18:47:58 72° SSE 18:54:41 10° SSE
ATLAS 2AS CENTAUR R/B 4.1 18:53:33 25° E 18:53:33 25° E 18:57:21 10° ESE
Okean O Rocket 4.2 18:57:05 16° ESE 18:57:05 16° ESE 18:59:52 10° SSE
CZ-2D R/B 3.8 19:04:30 28° SSW 19:04:30 28° SSW 19:07:01 10° SSW
NOSS 3-1 (C) 4.4 19:09:10 53° SW 19:09:10 53° SW 19:16:33 10° SSE
Resurs 1-4 Rocket 4.0 19:19:27 21° SSW 19:19:27 21° SSW 19:21:18 10° SSW
CZ-4C R/B 3.1 19:13:39 10° SSW 19:18:26 45° SSE 19:18:26 45° SSE
ADEOS Rocket 3.8 19:21:34 39° SSW 19:21:34 39° SSW 19:24:57 10° SSW
USA 215 4.4 19:21:23 10° ESE 19:27:07 31° NE 19:27:11 31° NE
Cosmos 2369 Rocket 3.4 19:23:25 10° SSW 19:26:32 34° SSW 19:26:32 34° SSW
BREEZE-M DEB (TANK) 4.2 19:19:41 10° SW 19:43:55 63° NW 19:43:55 63° NW
MOS 1 Rocket 4.0 19:48:24 53° SE 19:48:24 53° SE 19:52:38 10° S
ISS -0.2 19:51:35 15° SSE 19:51:35 15° SSE 19:53:19 10° ESE
Cosmos 1624 Rocket 4.2 19:47:22 10° SSW 19:52:32 68° ESE 19:52:32 68° ESE
Cosmos 2056 Rocket 3.8 19:48:27 10° SSW 19:53:41 64° ESE 19:53:44 64° ESE
IRAS Rocket 4.2 20:02:01 78° SW 20:02:01 78° SW 20:07:22 10° SSW
PSLV R/B 4.2 20:07:54 51° E 20:08:14 52° ESE 20:12:32 10° S
ATLAS 3B R/B 3.4 20:10:45 10° SSW 20:17:57 60° SE 20:25:25 10° NE
Cosmos 1943 4.5 20:20:00 26° SW 20:20:00 26° SW 20:24:38 10° S
USA 161 3.8 20:25:43 10° SE 20:27:42 23° ESE 20:27:42 23° ESE
ERS-2 2.8 20:30:20 51° S 20:30:20 51° S 20:33:14 10° SSW
Cosmos 1470 Rocket 3.9 20:28:48 51° NNE 20:29:44 65° E 20:34:13 10° SSE
Cosmos 1633 Rocket 3.4 20:30:20 55° SW 20:30:20 55° SW 20:34:15 10° S
Aureole 3 4.5 20:28:37 33° NE 20:29:56 45° E 20:34:37 10° SSE
Cosmos 1943 Rocket 2.4 20:24:58 10° SSW 20:29:36 48° WSW 20:29:36 48° WSW
Okean O Rocket 2.6 20:34:33 33° SW 20:34:33 33° SW 20:37:24 10° SSW
Cosmos 1455 4.3 20:30:02 10° SSW 20:31:13 18° SSW 20:31:13 18° SSW
Cosmos 1452 Rocket 4.0 20:29:54 10° SSW 20:35:12 62° ESE 20:40:26 10° NNE
UNK 3.6 20:32:21 10° SSE 20:37:02 87° WSW 20:37:50 61° NNW
ADEOS II 2.1 20:41:11 48° NNW 20:42:21 59° W 20:47:38 10° SSW
Meteor 1-31 Rocket 3.7 20:39:16 11° NNE 20:42:47 47° ESE 20:46:32 10° S
ATLAS 2AS CENTAUR R/B 2.8 20:41:00 40° W 20:42:47 51° SW 20:48:44 10° SSE
Cosmos 1607 4.2 20:37:21 10° SSW 20:43:39 69° ESE 20:49:47 10° NE
COSMOS 2406 3.2 20:48:00 41° NW 20:50:01 73° WSW 20:55:46 10° SSE
Cosmos 1869 4.0 20:46:56 10° SSW 20:50:03 40° WSW 20:50:03 40° WSW
PSLV R/B 3.7 20:53:37 52° SW 20:54:01 57° S 20:57:26 10° ESE
SL-16 R/B 2.5 20:48:49 10° S 20:55:03 71° WSW 20:58:29 28° NNW
CZ-4B R/B 3.8 20:58:03 35° WNW 20:58:51 37° W 21:04:04 10° SSW
Cosmos 2026 Rocket 4.5 21:00:08 10° N 21:06:27 64° E 21:12:49 10° SSE
CZ-4C R/B 4.2 21:03:09 10° WSW 21:03:27 11° WSW 21:03:27 11° WSW
Nadezhda 4 Rocket 4.2 21:04:25 28° NW 21:07:27 51° W 21:13:31 10° S
USA 215 3.4 21:03:47 10° SE 21:10:22 70° SW 21:14:32 24° WNW
Landsat 4 3.6 21:07:18 10° SSE 21:11:10 86° WSW 21:13:13 26° NNW
CZ-3 R/B 3.7 21:03:12 20° NW 21:14:52 35° N 21:21:24 10° ENE
GPS 2-05 Rocket1 4.3 21:16:01 21° N 21:16:01 21° N 21:17:46 10° NE
Cosmos 1655 Rocket 4.5 21:11:38 10° N 21:17:53 66° E 21:24:18 10° SSE
Cosmos 1269 Rocket 4.0 21:14:21 18° NNW 21:18:19 86° WSW 21:23:41 10° SSE
Iridium 4 Rocket 4.3 21:12:49 10° NNE 21:18:30 61° E 21:23:50 10° S
SL-27 R/B 3.4 21:18:05 30° W 21:18:36 32° WSW 21:21:57 10° S
Okean-O 2.8 21:16:26 11° N 21:20:40 50° W 21:25:04 10° SSW
Feng Yun 1-1 Rocket 4.4 21:15:13 10° N 21:21:00 56° W 21:26:45 10° SSW
DELTA 2 R/B (1) 4.0 21:19:31 23° NW 21:22:46 51° NNE 21:28:10 10° E
Cosmos 1932 4.5 21:17:01 10° SW 21:22:58 53° WNW 21:28:57 10° N
Cosmos 1862 Rocket 4.0 21:19:48 10° SSW 21:24:06 41° W 21:27:18 16° NNW
Tiangong 2 1.2 21:22:58 35° W 21:24:07 65° SSW 21:27:16 10° ESE
MOZ.5/SAFIR/RUBIN 5/SL-8 3.8 21:19:29 10° S 21:24:19 76° WSW 21:28:46 12° NNW
Meteor 2-3 Rocket 3.9 21:19:33 10° N 21:25:08 73° E 21:30:48 10° SSE
Cosmos 1356 3.4 21:22:30 17° N 21:25:10 89° WSW 21:28:47 10° S
SeaSat 1 3.2 21:21:16 10° NE 21:26:06 56° ESE 21:30:59 10° SSW
ISS -3.0 21:24:55 10° SW 21:28:15 71° SE 21:31:34 10° ENE
Radarsat Rocket 3.8 21:23:46 10° N 21:29:40 75° WNW 21:35:37 10° SSW
SJ-6F 4.4 21:25:58 10° N 21:30:02 66° WNW 21:34:11 10° SSW
USA 238 DEB 3.7 21:24:55 10° SW 21:32:02 75° WNW 21:39:03 10° NNE
USA 238 3.7 21:25:00 10° SW 21:32:07 75° WNW 21:39:09 10° NNE
Cosmos 1703 Rocket 3.6 21:27:41 10° S 21:32:10 88° E 21:36:32 10° N
OAO 2 Rocket 4.1 21:30:37 21° WNW 21:33:08 33° NNW 21:37:37 10° NE
COSMOS 2455 3.9 21:30:16 10° SSW 21:36:10 50° ESE 21:42:00 10° NE
NOSS 3-2 (A) 4.1 21:30:46 10° SSW 21:37:15 59° SE 21:43:10 10° NE
In-Cosmos 22 Rocket 4.4 21:36:03 10° NNW 21:41:39 55° WSW 21:47:11 10° S
Cosmos 2221 Rocket 3.6 21:39:16 10° S 21:43:51 89° W 21:48:24 10° N
Cosmos 1933 4.3 21:41:06 10° SSW 21:44:36 28° W 21:48:03 10° NNW
Cosmos 158 Rocket 4.1 21:42:04 10° NNW 21:47:13 62° WSW 21:52:33 10° SSE
CZ-4 R/B 4.1 21:46:17 10° NE 21:49:34 25° ESE 21:52:51 10° SSE
S3M 4.2 21:49:43 10° S 21:56:11 87° E 22:02:36 10° N
Cosmos 1420 Rocket 4.5 21:51:26 10° SW 21:56:19 38° W 22:01:08 10° NNW
ATLAS CENTAUR R/B 1.4 21:53:10 10° NNW 21:56:58 74° ENE 22:01:06 10° SE
USA 161 3.8 21:57:11 10° SW 21:57:48 11° WSW 21:58:26 10° W
NOSS 3-2 (C) 3.9 21:57:01 10° SSW 22:03:36 70° SE 22:09:36 10° NE
IDEFIX/ARIANE 42P 3.6 22:00:52 10° NNE 22:05:54 52° ESE 22:10:59 10° S
Cosmos 1892 3.3 22:02:19 10° NNW 22:05:58 38° WSW 22:09:39 10° S
Cosmos 1825 3.6 22:02:35 10° NNE 22:06:13 43° E 22:09:54 10° SSE
Cosmos 1553 Rocket 3.9 22:00:28 10° S 22:06:36 75° W 22:12:40 10° N
Cosmos 1869 Rocket 4.0 22:03:29 10° NNW 22:07:39 41° WSW 22:11:54 10° S
ATLAS 3B R/B 3.6 22:02:10 10° SW 22:08:19 29° WNW 22:14:35 10° NNW
Centaur D AC-29 4.2 21:33:20 10° W 22:31:57 46° NNW 22:38:33 10° NE
